Port Angeles, WA

10:44 AM PDT on April 21, 2018 (GMT -0700)
Fairchild International

Weather History for KCLM - November, 2011

Change the Weather History Date:

Wednesday, November 2, 2011

  Actual Average Record
Temperature  
Mean Temperature 41 °F -  
Max Temperature 50 °F 53 °F 60 °F (1949)
Min Temperature 34 °F 40 °F 24 °F (2002)
Degree Days  
Heating Degree Days 24    
Moisture  
Dew Point 36 °F    
Average Humidity 81    
Maximum Humidity 92    
Minimum Humidity 61    
Precipitation  
Precipitation 0.06 in - - ()
Sea Level Pressure  
Sea Level Pressure 29.95 in    
Wind  
Wind Speed 5 mph (SW)    
Max Wind Speed 8 mph    
Max Gust Speed -    
Visibility 10 miles    
Events Rain    
Averages and records for this station are not official NWS values.
T = Trace of Precipitation, MM = Missing Value Source: NWS Daily Summary

Daily Weather History Graph

Daily Weather History Graph

Search for Another Location

Airport or City:

Astronomy

Nov. 02, 2011 Rise Set
Actual Time 8:00 AM PDT 5:53 PM PDT
Civil Twilight 7:27 AM PDT 6:26 PM PDT
Nautical Twilight 6:51 AM PDT 7:03 PM PDT
Astronomical Twilight 6:14 AM PDT 7:39 PM PDT
Moon 2:21 PM PDT (11/2) No Moon Set
Length of Visible Light 10h 58m
Length of Day
9h 53m
Waxing Crescent, 51% of the Moon is Illuminated
Nov 2
Waxing Crescent
Nov 10
Full
Nov 18
Last Quarter
Nov 24
New
Dec 2
First Quarter

Hourly Weather History & Observations

Time (PDT) Temp. Windchill Dew Point Humidity Pressure Visibility Wind Dir Wind Speed Gust Speed Precip Events Conditions
12:53 AM 34.0 °F - 32.0 °F 92% 30.31 in 10.0 mi Calm Calm - N/A   Partly Cloudy
1:53 AM 35.1 °F 31.0 °F 33.1 °F 92% 30.27 in 10.0 mi WSW 4.6 mph - N/A   Clear
2:53 AM 37.0 °F 31.0 °F 33.1 °F 86% 30.23 in 10.0 mi SW 8.1 mph - N/A   Clear
3:53 AM 37.0 °F 31.6 °F 32.0 °F 82% 30.20 in 10.0 mi SW 6.9 mph - N/A   Mostly Cloudy
4:53 AM 36.0 °F 31.1 °F 32.0 °F 86% 30.15 in 10.0 mi SW 5.8 mph - N/A   Mostly Cloudy
5:51 AM 35.6 °F 29.2 °F 32.0 °F 87% 30.11 in 10.0 mi SW 8.1 mph - N/A   Scattered Clouds
5:53 AM 35.1 °F 30.1 °F 32.0 °F 89% 30.11 in 10.0 mi SW 5.8 mph - N/A   Scattered Clouds
6:53 AM 34.0 °F 29.8 °F 30.0 °F 85% 30.06 in 10.0 mi WSW 4.6 mph - N/A   Clear
7:53 AM 34.0 °F 28.8 °F 30.9 °F 89% 30.02 in 10.0 mi WSW 5.8 mph - N/A   Clear
8:53 AM 37.9 °F 32.7 °F 34.0 °F 86% 29.98 in 10.0 mi WSW 6.9 mph - N/A   Partly Cloudy
9:53 AM 44.1 °F 39.5 °F 37.9 °F 79% 29.95 in 10.0 mi WSW 8.1 mph - N/A   Clear
10:53 AM 45.0 °F 41.8 °F 37.9 °F 76% 29.91 in 10.0 mi WSW 5.8 mph - N/A   Clear
11:53 AM 48.0 °F - 37.9 °F 68% 29.86 in 10.0 mi WNW 6.9 mph - N/A   Clear
12:53 PM 48.0 °F - 37.0 °F 66% 29.83 in 10.0 mi Calm Calm - N/A   Clear
1:53 PM 48.9 °F - 36.0 °F 61% 29.83 in 10.0 mi West 3.5 mph - N/A   Clear
2:53 PM 48.9 °F - 36.0 °F 61% 29.80 in 10.0 mi North 3.5 mph - N/A   Partly Cloudy
3:50 PM 46.4 °F 43.5 °F 39.2 °F 76% 29.79 in 10.0 mi SE 5.8 mph - 0.00 in   Overcast
3:53 PM 46.9 °F - 39.9 °F 77% 29.80 in 10.0 mi SE 4.6 mph - 0.00 in   Mostly Cloudy
4:06 PM 46.4 °F 42.4 °F 39.2 °F 76% 29.79 in 10.0 mi SE 8.1 mph - N/A   Mostly Cloudy
4:53 PM 46.0 °F 41.9 °F 39.9 °F 79% 29.80 in 7.0 mi West 8.1 mph - 0.02 in Rain Light Rain
5:53 PM 45.0 °F 43.5 °F 41.0 °F 86% 29.81 in 10.0 mi WSW 3.5 mph - 0.04 in   Overcast
6:53 PM 45.0 °F 42.6 °F 39.9 °F 82% 29.81 in 10.0 mi Variable 4.6 mph - N/A   Overcast
7:53 PM 44.6 °F 41.4 °F 39.2 °F 81% 29.81 in 10.0 mi SW 5.8 mph - N/A   Overcast
8:53 PM 42.1 °F 40.2 °F 39.0 °F 89% 29.82 in 10.0 mi SW 3.5 mph - N/A   Clear
9:53 PM 41.0 °F - 37.9 °F 89% 29.83 in 10.0 mi Calm Calm - N/A   Mostly Cloudy
10:53 PM 42.1 °F 38.4 °F 37.9 °F 85% 29.83 in 10.0 mi WSW 5.8 mph - N/A   Mostly Cloudy
11:53 PM 43.0 °F 38.2 °F 39.0 °F 86% 29.84 in 10.0 mi West 8.1 mph - 0.00 in Rain Light Rain